GFSSGP_500_spd_231.txt.gz
Wind_Speed
12 10 9 3 1 7 6 1 3 4 8 6 5 2 2 2 3 3 3 4 6 7 8 8 9 12 14 16 14 13 11 9 7 6 9 11 13 13 15 15 16 16 15 15 15 15 16 17 16
14 12 8 2 11 11 20 6 16 15 2 5 6 8 7 6 6 6 7 9 8 7 9 12 14 14 14 15 15 13 13 13 12 12 13 15 16 18 19 20 20 19 19 19 19 19 18 18 19
13 13 12 4 2 19 11 14 6 9 8 8 11 13 12 10 10 10 11 12 11 9 8 12 16 16 17 17 17 17 16 16 16 17 18 18 19 20 21 21 22 22 22 22 22 22 22 23 22
13 13 9 4 6 15 11 10 7 14 12 14 14 16 15 14 14 15 15 14 14 14 14 14 17 22 22 23 26 25 21 22 23 24 24 23 22 23 24 26 26 26 26 26 26 26 26 26 26
14 11 7 6 15 19 8 9 24 10 14 20 18 18 17 16 17 18 18 17 16 18 18 17 18 21 27 26 27 27 27 26 25 27 27 26 27 27 28 29 30 30 31 31 31 31 31 31 31
14 7 7 13 15 14 23 32 15 19 13 16 17 16 14 15 17 19 19 18 19 20 21 20 20 21 24 26 26 28 29 30 29 28 28 30 30 31 32 33 33 33 34 35 35 36 36 36 35
7 5 8 13 11 18 27 20 23 13 8 11 17 17 14 18 22 20 19 21 21 21 21 21 21 20 22 23 26 27 28 29 32 32 33 33 34 34 34 37 36 38 38 39 41 41 40 40 39
13 9 13 13 13 20 14 22 16 22 12 7 10 12 14 13 12 16 16 18 21 21 22 22 21 21 21 23 26 27 30 32 32 34 35 36 37 37 38 39 40 41 41 42 43 44 44 44 45
8 9 8 10 15 10 27 10 20 13 10 13 11 15 14 12 16 18 19 18 19 18 17 18 19 21 24 25 27 29 31 31 33 35 37 38 40 40 41 41 42 43 44 46 47 47 47 48 48
9 7 7 12 16 13 12 15 21 16 24 22 20 21 18 18 19 19 17 14 14 15 17 20 23 26 27 29 30 31 33 33 33 34 35 37 39 40 42 43 45 46 47 46 48 48 49 50 51
8 11 14 27 32 21 14 13 16 13 12 18 22 16 16 20 19 14 14 16 18 20 21 22 24 26 28 29 30 31 33 34 37 38 39 39 40 39 41 42 44 45 46 46 48 50 52 52 53
5 13 13 10 10 13 13 16 18 19 21 16 21 19 19 18 16 15 18 20 22 22 23 24 25 26 27 28 30 33 36 39 41 42 42 44 45 46 47 48 50 49 50 49 50 51 52 54 56
11 13 12 10 8 11 15 15 20 20 17 21 22 23 20 18 16 18 21 21 23 25 28 30 29 28 29 30 31 33 37 38 40 43 43 46 50 51 54 55 56 56 57 57 57 56 55 55 55
15 16 17 15 15 13 14 22 17 21 21 24 25 24 22 17 19 21 22 24 24 26 26 27 29 31 31 33 35 37 39 42 44 47 48 49 53 54 56 58 61 63 64 63 62 63 62 61 60
18 19 21 20 21 22 19 24 21 23 24 24 23 22 21 21 21 23 25 27 26 25 26 27 30 33 35 37 40 42 45 48 50 52 53 53 56 57 59 62 65 65 66 67 68 67 66 65 63
16 16 15 19 17 24 19 15 29 20 21 21 22 22 23 24 24 27 29 27 29 31 32 35 37 38 40 41 44 45 47 49 52 54 55 55 55 56 58 62 65 64 64 65 66 67 68 69 67
14 13 12 22 23 20 16 11 29 18 18 21 23 25 25 26 29 29 30 30 32 34 37 40 43 44 46 48 49 51 51 52 52 53 54 55 56 58 59 60 63 63 64 64 65 65 65 65 67
10 19 11 20 30 16 18 15 26 19 18 20 24 28 29 29 30 30 33 33 36 39 42 44 47 49 50 51 50 51 53 53 54 56 58 59 59 61 62 63 64 65 67 66 64 64 66 66 66
21 17 16 18 30 19 16 20 30 21 22 24 25 29 31 30 31 32 34 37 40 42 45 48 50 51 52 51 52 53 54 56 59 60 61 62 62 62 62 63 64 65 66 66 65 64 63 65 68
20 16 14 27 32 23 19 25 32 23 25 25 26 28 31 33 33 35 38 40 43 45 49 51 51 50 50 51 54 56 58 60 61 62 63 63 63 63 64 65 66 66 66 65 65 64 63 63 65
18 13 15 20 29 25 23 30 27 28 27 29 28 29 32 34 36 38 41 44 47 49 50 50 50 49 51 53 56 59 61 63 64 65 66 67 67 67 67 67 69 69 69 67 66 65 65 64 61
10 23 26 28 28 18 24 24 20 37 29 27 29 31 33 35 38 42 44 47 49 50 51 49 49 51 54 57 59 61 64 65 66 67 67 67 68 69 70 70 69 68 66 64 63 63 63 61 59
16 30 28 27 27 26 21 26 17 29 32 30 29 32 35 38 41 45 47 49 49 49 49 50 51 55 58 59 61 63 65 66 66 67 67 68 68 69 67 62 55 54 53 53 51 51 53 54 54
25 22 24 21 21 23 19 20 14 28 29 32 33 34 37 40 44 47 47 48 48 49 52 53 57 58 60 61 63 65 65 65 66 66 68 67 67 63 58 53 51 49 46 44 44 47 48 49 47
23 21 17 19 18 21 16 19 17 33 40 28 40 41 43 43 45 46 46 48 49 52 54 54 59 61 63 65 66 65 64 66 67 68 69 67 60 52 49 47 43 42 40 37 37 38 40 44 47
14 20 13 17 16 20 24 25 28 32 31 34 36 40 46 47 43 46 44 49 50 53 56 59 63 65 64 64 64 65 66 67 70 69 63 56 50 47 43 42 39 36 37 37 38 36 36 38 41
11 14 21 24 22 20 17 22 29 40 36 32 33 37 41 43 45 43 47 51 53 56 59 62 66 64 64 63 64 65 66 67 64 57 52 51 45 40 38 36 35 36 38 38 42 43 41 37 39
20 22 20 15 18 19 14 13 29 41 44 42 41 42 41 42 45 48 50 53 57 61 64 68 66 63 63 65 65 66 60 55 50 48 43 36 32 31 31 29 31 31 31 37 40 36 33 29 31
20 15 21 26 23 24 22 20 34 40 44 41 36 41 40 43 43 48 52 55 59 62 64 66 62 63 63 65 63 56 46 45 43 34 33 30 26 25 25 25 24 26 31 31 27 26 28 30 30
24 26 27 29 26 21 24 26 41 39 38 36 34 41 43 44 46 50 54 58 60 61 63 61 62 64 64 60 53 44 42 39 31 27 24 23 24 24 24 24 21 24 27 24 21 17 14 10 16

GFSSGP_500_spd_237.txt.gz
Wind_Speed
8 10 11 8 7 9 7 16 11 8 2 12 2 4 7 10 9 8 5 3 9 10 18 20 17 17 18 18 16 16 17 17 17 17 19 18 18 18 18 17 17 17 16 17 17 17 16 16 17
5 6 9 8 4 8 14 23 4 6 10 14 5 3 9 10 11 9 8 8 7 8 17 17 14 16 18 19 18 18 19 20 19 18 18 18 19 19 19 19 19 19 20 20 20 21 21 21 20
6 5 10 11 4 11 12 17 20 3 12 14 0 5 7 14 14 11 12 12 13 13 13 12 12 13 17 17 18 18 20 20 19 19 19 20 20 20 20 21 21 22 22 22 22 22 23 24 24
5 8 13 12 5 12 16 16 20 24 25 5 11 9 11 18 17 15 15 16 17 18 16 17 17 16 18 20 22 22 24 23 21 21 24 24 26 27 26 26 26 25 25 25 26 27 27 27 27
7 10 12 11 9 18 22 11 11 23 25 13 19 14 10 14 16 18 21 20 24 22 19 18 20 21 21 21 24 26 27 27 27 28 28 27 28 27 27 27 27 29 29 29 30 29 29 30 31
9 15 16 8 13 29 15 3 15 23 28 35 36 31 15 12 12 15 16 16 19 25 17 20 21 22 22 23 23 23 23 26 29 28 27 28 29 29 29 29 30 31 32 33 33 32 31 31 33
12 18 19 9 18 21 17 13 15 28 32 35 39 25 26 10 9 17 18 18 24 10 21 21 22 24 23 23 22 21 22 24 26 27 28 29 30 31 32 33 34 33 33 34 35 36 34 34 35
17 19 9 11 9 31 24 15 21 28 32 35 34 18 17 19 13 15 18 19 22 21 21 19 19 20 20 20 21 23 23 24 26 27 29 28 29 30 31 32 33 34 34 34 35 35 35 36 36
9 18 13 19 20 20 23 19 19 23 32 34 24 18 18 19 20 25 25 24 20 21 21 17 15 19 21 22 22 23 24 25 26 27 27 27 27 29 30 31 33 34 36 36 37 38 38 38 38
8 20 16 12 12 17 21 11 17 26 32 31 19 12 12 17 19 25 21 21 22 21 21 21 23 20 19 19 20 23 24 23 23 26 28 29 30 32 33 34 35 36 38 38 39 42 43 43 42
20 14 10 6 12 15 12 12 21 27 31 29 30 16 10 17 24 24 18 16 20 23 24 22 22 23 25 26 26 22 24 26 25 26 29 32 34 35 37 39 40 41 42 44 45 44 44 45 46
16 11 9 9 15 14 17 16 25 32 35 30 33 25 14 22 26 27 26 27 26 23 25 25 25 26 27 27 25 27 28 30 31 33 35 39 42 43 44 46 47 47 48 50 52 52 53 53 53
9 6 10 17 6 11 26 15 19 26 33 35 27 28 25 28 28 28 30 33 30 22 24 27 27 29 29 29 30 33 35 37 39 41 42 43 44 46 47 48 50 51 50 51 53 55 57 59 59
13 16 17 15 11 17 16 32 35 39 32 32 26 30 31 36 33 33 32 33 28 24 26 28 31 33 32 34 35 37 39 41 43 46 48 50 52 52 51 50 48 48 49 50 53 55 58 59 60
15 20 18 17 14 18 18 23 30 31 31 28 29 30 34 39 38 34 29 24 24 26 29 33 35 35 35 38 39 41 43 45 48 51 53 54 54 54 53 50 51 53 55 58 59 60 61 62 64
12 12 10 11 16 21 17 11 22 28 31 32 26 29 34 30 31 30 25 24 24 27 32 34 36 37 38 41 43 45 47 49 51 54 56 57 57 55 55 57 59 61 64 66 68 68 67 65 65
10 3 15 19 14 27 27 28 30 25 25 29 32 28 32 35 33 31 30 28 29 30 33 36 37 38 40 42 45 47 50 52 55 57 59 59 59 59 60 63 65 67 68 69 71 72 74 75 74
4 9 19 22 20 24 27 32 33 28 30 33 28 29 33 37 39 38 33 30 30 31 34 36 38 41 43 45 47 50 53 56 58 59 59 60 62 63 64 67 69 71 72 74 74 75 75 77 78
10 16 17 22 23 20 26 26 33 31 41 42 32 30 33 39 41 42 40 32 32 34 33 35 42 45 47 48 51 54 56 57 57 58 60 63 64 65 68 70 73 75 77 77 77 77 77 77 79
14 19 23 23 21 24 31 35 31 38 42 40 35 27 30 33 40 43 44 40 38 37 37 39 44 48 50 53 55 55 56 58 59 61 63 65 68 71 74 76 76 77 78 76 76 75 74 71 70
19 21 27 19 19 28 31 40 33 29 24 35 35 35 34 36 39 40 41 41 42 43 43 39 46 49 51 51 53 56 58 59 60 63 66 69 72 75 76 77 77 75 74 72 70 69 68 65 61
23 26 25 22 28 31 35 40 33 37 24 31 45 42 36 37 40 41 37 45 45 46 41 47 50 51 52 52 54 56 56 58 63 69 71 74 75 75 73 72 72 70 67 65 64 60 57 53 49
23 30 29 29 35 38 34 40 42 36 30 39 40 44 34 40 38 37 45 42 46 47 50 53 53 55 52 53 53 55 53 57 64 70 73 72 72 71 70 69 64 60 55 52 49 46 43 40 38
23 21 27 27 26 33 30 36 34 34 42 45 25 23 19 32 39 37 39 42 51 53 54 57 57 58 58 57 57 60 63 66 70 71 70 66 66 65 62 57 50 47 44 40 35 34 34 35 35
22 24 19 14 16 20 23 26 27 24 28 28 5 18 27 23 43 42 47 56 59 62 62 60 59 60 63 64 68 71 71 73 73 73 66 64 60 55 48 44 40 38 34 30 29 28 27 28 30
22 25 26 26 20 19 26 31 28 24 27 31 40 41 38 34 40 47 52 57 61 64 58 59 61 61 65 68 72 74 74 72 68 64 58 55 50 43 40 35 31 29 26 25 24 25 25 28 31
22 19 22 26 23 22 19 28 33 27 28 24 31 34 38 41 42 49 55 62 61 59 58 59 63 68 70 73 76 77 73 66 61 56 51 45 37 38 33 28 28 29 28 26 24 25 28 27 27
28 23 22 25 27 25 18 30 36 37 35 42 43 38 40 43 49 55 54 54 54 55 56 61 66 70 74 77 77 71 65 59 55 50 46 37 34 30 27 28 29 30 29 27 26 26 25 24 26
25 31 24 22 16 24 29 28 33 33 37 43 44 45 46 49 50 49 53 52 54 58 62 66 71 75 75 71 64 59 54 49 46 41 36 32 27 25 26 29 31 29 30 30 29 24 22 20 23
24 24 29 29 34 30 29 31 37 45 45 46 47 47 44 45 46 50 49 53 58 61 65 69 72 68 63 56 52 45 43 43 38 32 29 24 24 25 28 31 31 31 29 33 26 22 21 21 20

GFSSGP_500_spd_240.txt.gz
Wind_Speed
13 16 14 11 11 14 17 9 20 17 14 13 18 15 6 5 9 6 3 5 5 11 14 11 15 16 13 13 15 15 15 14 15 16 16 17 18 19 18 18 18 18 18 17 17 18 18 17 17
11 14 15 14 15 17 17 14 15 8 8 6 17 12 4 7 7 7 4 3 9 10 12 11 14 12 13 14 16 17 18 17 15 14 16 16 18 18 19 18 18 19 20 20 21 22 22 22 22
10 12 17 15 19 12 12 18 22 16 19 9 24 6 6 6 9 7 11 11 11 11 11 14 14 13 14 16 18 19 19 20 21 18 17 18 19 21 23 24 23 23 23 24 24 24 25 26 26
9 13 21 15 19 11 10 16 23 20 15 29 18 17 7 17 21 15 9 11 13 16 17 17 15 15 15 17 20 23 23 23 24 24 24 24 24 27 27 27 26 27 28 30 29 28 27 28 29
9 13 20 19 18 11 19 20 24 15 14 24 34 24 18 15 10 16 11 12 17 20 20 21 20 20 19 19 21 23 24 27 29 29 29 31 31 27 29 29 28 28 28 29 29 30 31 31 30
11 14 18 17 13 9 14 12 8 19 19 21 26 24 14 10 15 9 13 11 14 14 16 18 18 20 21 20 20 21 21 23 24 22 24 25 25 26 28 28 29 30 30 30 31 31 32 32 33
14 18 14 10 14 11 14 11 13 20 18 23 22 19 18 9 10 8 10 14 15 15 11 15 20 21 20 20 19 21 21 22 23 24 25 27 28 28 28 29 30 31 32 32 32 32 33 32 32
13 19 14 4 9 11 16 15 13 18 18 23 22 24 16 15 16 16 14 13 17 15 14 19 17 15 14 17 18 19 20 20 22 23 24 25 27 29 30 30 30 31 31 32 33 34 34 33 34
10 18 11 10 9 7 10 16 14 20 20 20 27 18 20 22 18 16 9 13 16 15 16 18 16 17 17 18 19 20 22 23 24 24 23 24 26 28 29 30 31 31 32 34 35 36 37 37 37
14 16 9 10 12 12 20 18 19 21 22 25 30 29 31 30 26 21 12 13 17 16 17 17 17 16 16 18 21 22 20 20 22 23 25 25 27 28 30 32 33 34 35 37 38 39 39 40 40
18 15 13 7 4 6 15 22 24 27 25 29 32 37 39 33 28 25 11 15 22 21 21 22 21 21 20 21 22 23 22 22 24 25 28 31 32 34 37 39 40 40 41 42 43 43 44 44 44
17 24 19 16 9 10 17 22 26 23 24 30 33 32 32 28 28 26 21 20 30 31 31 26 22 24 26 26 28 28 28 28 29 31 34 36 38 40 42 45 47 48 48 49 50 49 47 45 43
19 24 22 13 11 16 21 23 27 28 34 37 33 33 32 37 36 35 31 30 31 32 31 26 24 25 28 30 32 33 34 34 35 37 38 40 42 43 45 46 48 50 51 52 51 49 48 48 50
13 16 14 10 3 12 15 21 29 30 32 34 35 35 34 36 38 37 35 30 25 26 28 30 31 33 34 35 37 37 38 40 42 43 45 47 49 50 51 52 53 53 52 52 51 52 53 55 56
14 13 11 10 11 9 19 21 28 33 34 31 35 39 37 31 30 31 28 24 23 25 26 31 36 37 39 39 40 41 42 44 45 47 49 51 53 54 55 56 57 57 57 56 56 58 60 62 63
12 5 1 4 9 7 12 14 16 25 28 31 29 32 35 35 32 27 27 26 25 28 30 34 37 40 41 43 43 43 44 47 49 52 53 54 56 57 59 61 61 60 60 61 63 64 66 68 69
9 11 13 10 6 17 17 16 23 27 29 30 32 31 35 40 35 33 32 30 27 22 27 30 34 38 40 42 43 44 47 49 53 55 57 59 59 61 62 63 63 63 65 66 69 72 74 76 77
13 20 18 17 16 12 18 21 19 25 29 30 32 34 41 39 37 36 34 32 32 29 29 32 33 38 41 42 43 46 50 54 56 59 61 61 63 65 64 64 65 67 70 73 76 78 81 83 84
17 22 19 17 23 21 23 15 24 26 30 32 29 36 38 43 39 42 30 34 31 29 31 34 35 41 43 46 47 51 55 58 60 61 60 63 66 65 65 67 71 74 76 78 81 84 85 86 87
13 15 18 21 21 12 17 19 24 26 25 29 33 33 38 40 42 39 38 34 33 33 36 43 40 41 47 47 48 57 57 56 57 59 60 67 66 67 70 73 76 78 80 82 83 84 84 81 79
21 21 24 22 26 27 29 25 28 30 33 40 34 34 43 40 44 44 40 40 38 38 43 44 42 43 46 44 54 56 56 57 56 56 62 67 70 71 75 77 79 79 78 78 78 75 72 70 67
22 24 25 29 27 28 33 35 35 36 38 39 39 39 42 44 47 51 44 42 46 39 44 41 47 53 47 50 52 49 51 53 53 60 63 67 71 75 78 79 78 71 67 63 59 56 54 51 46
13 13 18 21 28 30 35 38 40 43 40 45 52 53 47 53 47 48 43 40 37 39 45 52 57 58 55 57 55 56 57 59 62 67 71 75 79 81 77 77 68 59 51 46 43 43 40 37 34
19 20 19 22 26 27 35 42 48 50 43 31 40 44 50 43 46 30 37 33 36 44 54 59 61 62 62 61 62 63 65 69 73 77 81 83 82 77 70 63 56 47 41 37 35 34 32 31 29
25 24 25 23 19 23 25 30 35 39 39 32 27 32 25 36 23 31 32 40 50 52 58 61 62 62 62 64 66 69 73 76 81 85 84 78 71 63 55 47 40 35 32 31 31 33 32 31 29
17 22 24 27 26 18 25 31 33 35 34 29 26 29 30 23 32 41 41 43 51 55 56 61 63 63 65 68 72 74 77 82 82 73 66 63 55 47 39 32 30 27 27 28 30 33 32 31 31
26 23 26 30 31 30 28 27 33 36 34 40 41 37 39 41 45 44 48 53 49 50 57 60 60 63 65 68 72 77 80 74 63 58 57 54 49 37 29 27 25 25 27 32 34 32 32 31 29
29 27 27 26 31 31 27 26 26 33 37 39 42 41 43 49 49 52 52 45 46 54 57 58 60 65 68 72 78 78 67 58 50 49 51 47 36 31 27 24 25 27 31 34 32 33 34 29 26
26 30 29 28 28 25 26 33 36 37 37 38 40 44 46 46 46 47 41 47 53 54 56 59 64 68 72 77 74 66 55 49 48 45 41 34 32 28 25 26 27 30 32 29 30 36 35 25 24
26 28 28 30 29 29 31 34 35 37 41 41 42 42 38 39 44 48 53 53 53 55 59 65 69 72 75 70 60 50 45 45 44 41 35 31 27 25 25 27 29 29 24 27 30 30 20 18 22

GFSSGP_500_spd_246.txt.gz
Wind_Speed
18 19 19 21 19 20 23 24 19 17 21 20 19 24 22 12 10 10 9 6 6 4 5 8 8 7 7 7 7 8 8 9 9 10 11 11 12 13 13 14 15 16 17 18 19 20 20 21 21
15 18 21 23 21 22 24 23 19 15 18 20 21 22 18 9 10 3 6 4 8 7 7 8 8 8 6 6 7 8 9 10 12 13 14 14 15 16 15 16 18 20 21 23 24 25 24 24 24
14 16 18 21 23 24 24 19 18 14 15 20 24 22 16 16 10 4 4 4 7 9 10 10 11 12 10 10 10 11 11 12 14 16 17 18 18 20 21 22 22 23 25 27 27 27 27 28 28
15 15 17 18 22 21 22 13 17 13 13 15 17 13 18 14 12 8 6 6 8 9 12 11 11 14 14 12 13 12 14 15 16 16 17 20 22 24 25 27 29 30 28 26 27 27 27 29 30
12 15 16 19 22 20 16 12 11 7 14 17 15 17 15 15 9 4 3 5 7 9 8 10 12 12 9 10 13 15 16 17 18 19 20 20 21 22 21 22 23 25 26 26 27 27 28 30 30
14 14 15 20 21 19 12 11 4 7 10 14 18 22 17 9 5 3 5 8 11 11 9 9 8 9 12 15 14 14 15 16 17 19 21 22 23 24 25 25 26 27 28 27 28 29 30 30 31
13 14 16 20 15 16 13 11 11 8 9 12 17 20 16 10 9 9 10 11 12 13 10 8 9 9 11 13 13 13 15 16 17 19 20 22 23 25 26 27 27 28 27 27 28 29 30 32 32
14 16 18 18 12 15 15 15 14 8 6 8 10 17 16 15 13 12 10 8 3 5 7 9 12 14 17 16 17 17 18 18 19 20 21 22 23 24 26 26 26 27 28 29 30 31 32 33 34
11 14 17 18 16 17 18 18 18 18 10 10 11 14 14 13 14 14 12 12 13 12 12 12 14 16 19 20 22 21 19 19 19 20 21 23 25 26 27 28 29 31 32 34 35 35 36 36 37
10 13 15 15 16 15 16 20 24 16 13 15 17 15 12 11 16 20 20 16 18 16 16 16 17 18 20 22 25 25 25 24 22 23 25 27 29 30 31 33 34 35 36 38 39 40 41 41 42
8 10 13 15 16 18 21 23 25 20 18 16 17 14 15 17 21 21 21 19 17 15 16 17 19 20 21 22 24 24 23 23 24 26 28 30 33 36 37 39 40 41 42 43 44 45 47 48 48
10 10 12 14 16 17 18 25 26 19 18 16 18 14 14 17 15 18 18 17 14 15 16 18 18 18 19 21 24 25 26 27 29 30 31 33 36 38 40 41 42 44 45 47 48 49 50 51 52
9 12 15 16 18 19 19 25 23 16 16 17 20 16 15 16 19 21 20 19 15 15 18 19 22 23 23 24 24 26 28 30 32 34 36 37 39 41 43 44 45 47 48 49 49 50 51 53 53
10 12 17 16 20 22 25 25 23 19 17 16 20 17 15 18 20 23 23 23 19 18 18 20 21 25 27 29 29 30 32 34 36 38 40 43 45 46 48 49 49 50 51 52 52 53 53 54 55
8 9 11 18 21 23 24 21 19 18 13 16 19 16 18 19 21 26 26 22 22 23 25 26 26 26 27 29 31 31 33 35 39 42 45 47 49 51 52 52 53 55 56 57 57 58 59 60 61
9 9 18 21 23 25 25 22 15 16 16 14 16 17 19 22 26 25 28 25 25 27 26 28 30 32 34 30 29 30 33 37 41 45 47 50 52 53 52 55 59 61 62 62 63 64 65 64 63
15 18 20 18 22 25 27 25 21 25 23 18 21 20 25 29 29 28 31 28 25 30 32 34 36 39 39 37 35 34 37 39 39 41 47 52 55 57 58 63 66 65 65 65 66 66 67 68 69
20 22 22 21 22 26 27 29 28 22 29 30 27 28 29 32 33 31 32 29 32 34 37 39 43 45 42 44 46 37 38 38 42 48 53 54 55 57 60 63 64 67 69 69 71 73 74 77 77
19 21 21 22 24 27 30 33 33 27 25 29 27 28 31 33 36 35 36 35 39 42 45 48 45 41 47 49 51 36 38 41 48 52 55 56 58 60 61 62 64 67 68 71 73 74 74 78 82
18 20 19 20 23 24 28 28 27 26 29 27 31 31 35 37 37 39 43 44 46 54 55 50 45 49 51 56 49 33 34 46 49 52 55 55 57 59 61 63 65 67 68 69 72 75 71 69 69
19 20 21 21 23 25 27 28 25 23 24 27 32 36 36 36 39 43 47 49 53 58 50 50 48 55 52 32 37 39 44 48 50 53 57 58 60 62 64 66 68 71 71 70 64 56 57 54 49
18 21 20 22 22 24 24 29 28 29 28 29 32 34 36 39 43 48 53 54 50 47 40 37 37 35 36 49 47 46 45 48 54 56 56 60 63 65 66 68 70 68 61 51 51 51 45 41 36
22 24 26 26 26 26 28 28 28 26 27 33 37 40 42 45 46 45 41 42 38 45 37 56 48 52 51 49 45 47 51 54 56 57 60 64 67 67 69 70 64 53 47 47 46 46 46 42 36
25 26 26 28 25 25 27 29 27 26 27 29 29 29 27 32 34 28 27 29 37 39 41 46 43 42 46 49 51 55 58 53 57 61 65 67 70 72 69 59 50 47 46 44 43 41 38 34 32
27 29 29 24 25 26 27 29 25 23 22 28 28 26 25 27 31 31 35 39 42 44 50 49 41 44 50 54 55 54 55 58 63 67 70 72 73 65 53 50 49 46 43 41 37 33 32 32 32
29 30 30 31 28 26 26 30 30 29 27 26 23 20 27 29 29 32 35 38 39 39 42 45 46 48 52 54 53 55 59 63 68 71 73 70 61 52 50 49 45 42 39 34 32 32 31 32 30
34 34 30 31 29 30 28 28 31 30 32 29 28 28 28 26 30 30 32 36 37 42 45 48 50 57 59 55 56 59 62 66 71 72 65 56 50 48 46 44 41 38 35 33 32 32 32 26 27
32 31 28 27 30 32 31 30 31 32 31 29 31 31 30 33 34 32 32 38 35 46 50 49 57 58 58 54 57 61 65 70 72 61 53 48 46 44 44 41 38 36 34 32 31 27 24 26 28
25 27 29 29 29 32 33 34 34 34 32 32 32 31 33 37 34 35 37 42 40 49 55 54 55 58 55 56 60 64 68 70 59 48 44 44 43 43 41 39 36 34 33 31 28 25 26 27 26
27 26 27 31 31 32 34 35 36 35 34 32 33 34 36 36 35 34 45 46 48 50 49 53 57 54 55 58 64 68 65 54 45 44 44 43 41 40 36 34 30 30 30 28 27 28 27 26 26